星链-4355 (STARLINK-4355 )

导读

STARLINK-4355是美国太空探索技术公司星链星座中的卫星,于2022年7月11日发射入轨,属于星链项目的组网卫星。它采用低轨设计,主要为全球用户提供高速互联网接入服务,尤其覆盖偏远地区,助力星链完成全球卫星互联网组网布局。

基本信息
目录编号:
53048
目录名称:
STARLINK-4355
国际标识:
2022-077F
轨道中心:
EARTH
卫星名称:
星链-4355
卫星全名:
星链-4355 (STARLINK-4355 )
卫星状态:
在轨 (已飞行1524 天)
发射日期:
2022-07-11 UTC
国别 :
美国 (US)
星等 :
--
该卫星已列入 空间交会检测服务 Space Conjunction Data Service (SCDS) ,当前飞行风险评估等级: 无高风险
轨道信息
数据来源 国际轨道数据
星历时间: 2026-09-12T04:00:01+0800
8小时前
查看轨道信息
半长轴: 6843.855km
偏心率: 0.0001185
轨道倾角: 97.285°
近地点辐角 83.969°
升交点赤经 70.706°
平近点角 188.964°
近地点: 464.907km
远地点: 466.529km
周期: 93.910分钟
每日圈数: 15.333865
详细信息
固有亮度:
5
最大亮度:
2.5
卫星平台:
Starlink v1.5
覆盖范围:
全球
运营商:
太空探索技术公司
运营商所在国:
美国
制造商(研发单位):
太空探索技术公司
制造商所在国:
美国
使用方式:
暂无
卫星简介
星链(Starlink)计划是由太空探索技术公司(SpaceX)提出的一个巨型低轨卫星互联网星座项目,计划在2019年至2024年间在太空搭建由约1.2万颗卫星组成的“星链”网络,其中1584颗将部署在地球上空550千米处的近地轨道,并从2020年开始工作。该卫星仍在工作。
2D轨道图
3D轨道图
轨道高度分析图
轨道倾角分析图
轨道综合分析图
查看轨道综合分析图
交会数据列表
事件ID 空间交会对象 最接近时刻(TCA) 交会距离 交会风险概率(CRP) 交会风险指数(CRI) 操作
CDM_260913-233905-304806-860221
2026-09-13T
23:39:33+0000
1.354 km
极远距离
3.201991E-6 低风险 0.45
CDM_260914-040105-283105-304821
2026-09-14T
04:01:00+0000
2.074 km
极远距离
2.605398E-6 低风险 0.43
CDM_260913-011104-737805-304821
2026-09-13T
01:11:15+0000
2.347 km
极远距离
1.944101E-6 低风险 0.41
CDM_260905-231905-304806-633821
2026-09-05T
23:19:57+0000
2.419 km
极远距离
1.805066E-6 低风险 0.4
CDM_260913-233005-227205-304821
2026-09-13T
23:30:52+0000
2.914 km
极远距离
1.229581E-6 低风险 0.37
CDM_260913-013505-228205-304821
2026-09-13T
01:35:11+0000
2.999 km
极远距离
1.201577E-6 低风险 0.37
CDM_260914-002605-304806-860221
2026-09-14T
00:26:31+0000
1.914 km
极远距离
1.196301E-6 低风险 0.37
CDM_260906-172205-304806-686421
2026-09-06T
17:22:21+0000
2.807 km
极远距离
9.850289E-7 极低风险 0.35
与全量物体交会距离演化趋势
与全量物体交会风险概率演化趋势